SCP
0 0 0 -0 0 0 -0 -0 -0 -0 -0 0 -0 -0 0 -0 -0 -0 -0 -0 -0 -0 0 0 0 0 0 0 0 0 0 0 0 0 0 0 0 0 0 -0 0 0 -0
0 0 0 -0 -0 -0 -0 -0 -0 0 -0 -0 -0 -0 -0 -0 -0 -0 -0 -0 0 0 0 0 0 0 0 0 -0 0 0 0 0 0 0 0 0 0 0 0 0 0 0
0 0 -0 0 -0 0 0 0 0 -0 -0 -0 -0 -0 0 0 0 0 0 0 0 0 0 -0 -0 0 0 -0 -0 -0 0 0 0 0 0 0 0 0 0 0 0 0 0
0 0 0 0 0 0 0 0 -0 0 -0 -0 0 0 0 0 0 0 0 0 0 0 0 0 0 0 0 -0 -0 -0 0 -0 -0 0 0 0 0 0 0 0 0 -0 0
0 0 0 0 0 -0 -0 -0 -0 -0 -0 -0 0 0 0 0 0 0 0 0 0 0 0 0 0 -0 -0 -0 -0 0 0 0 0 -0 0 0 0 0 0 0 0 0 0
0 0 0 0 -0 -0 -0 -0 -0 0 0 -0 -0 -0 -0 -0 0 0 0 0 0 0 0 0 0 0 -0 -0 -0 -0 0 0 0 -0 0 0 0 0 0 0 0 -0 -0
-0 -0 -0 0 0 0 0 0 0 0 0 -0 -0 0 0 -0 0 0 0 0 0 0 0 0 0 0 0 -0 0 0 -0 0 -0 -0 -0 -0 -0 0 -0 -0 -0 -0 -0
-0 -0 -0 0 0 0 0 0 0 0 0 0 0 -0 -0 0 0 0 0 0 0 0 0 0 0 -0 -0 -0 -0 0 0 -0 -0 -0 -0 0 0 -0 -0 -0 -0 -0 -0
-0 -0 -0 -0 0 0 0 -0 -0 -0 -0 -0 -0 -0 -0 0 0 0 0 0 0 -0 -0 -0 -0 -0 -0 -0 0 0 0 0 -0 -0 -0 -0 -0 -0 -0 -0 -0 -0 -0
0 0 0 -0 -0 -0 -0 -0 -0 -0 -0 0 0 0 0 0 0 0 0 0 0 -0 -0 -0 -0 0 -0 -0 0 -0 -0 -0 -0 -0 -0 0 -0 -0 -0 -0 -0 -0 -0
-0 -0 -0 -0 -0 -0 -0 -0 0 0 -0 -0 -0 0 0 0 0 0 0 0 0 0 -0 -0 0 -0 0 0 -0 -0 -0 -0 -0 -0 -0 -0 -0 -0 -0 -0 -0 -0 -0
0 -0 -0 -0 -0 -0 -0 -0 -0 -0 -0 -0 -0 -0 -0 0 0 0 0 0 0 0 0 0 0 0 0 0 0 0 -0 -0 -0 -0 -0 -0 -0 0 -0 0 -0 -0 -0
-0 -0 -0 -0 -0 -0 -0 -0 -0 -0 -0 -0 -0 -0 -0 -0 -0 0 -0 0 0 0 0 0 0 0 0 0 0 0 0 -0 -0 -0 -0 0 0 0 0 0 0 -0 -0
0 -0 -0 -0 -0 -0 -0 -0 -0 -0 -0 -0 -0 0 0 0 -0 0 0 0 -0 -0 0 0 0 0 0 -0 -0 0 0 0 0 -0 -0 0 0 -0 -0 0 0 0 0
0 0 -0 -0 -0 -0 -0 -0 -0 -0 -0 -0 -0 0 0 0 0 -0 -0 -0 -0 -0 -0 0 0 0 -0 -0 -0 -0 -0 0 0 0 0 0 0 -0 -0 -0 0 0 0
0 0 -0 -0 -0 -0 -0 -0 -0 -0 -0 0 0 0 0 0 -0 -0 -0 -0 -0 -0 -0 -0 -0 -0 -0 -0 -0 -0 -0 -0 -0 0 0 0 0 0 0 0 -0 0 0
0 0 0 0 -0 -0 -0 -0 -0 -0 -0 0 0 0 0 0 0 0 0 -0 0 0 0 -0 -0 -0 -0 -0 -0 -0 -0 -0 -0 -0 0 0 0 0 0 0 0 0 0
0 -0 -0 0 0 0 -0 0 -0 -0 -0 -0 -0 0 0 0 0 0 0 0 0 0 0 0 0 0 0 0 0 -0 -0 -0 -0 -0 -0 0 0 0 0 0 0 0 0
-0 -0 -0 -0 -0 0 0 -0 -0 -0 -0 -0 -0 0 0 0 0 0 0 0 0 0 0 0 0 0 0 0 0 0 0 0 0 0 -0 -0 0 0 0 0 0 0 0
-0 -0 -0 -0 -0 -0 -0 -0 -0 -0 -0 0 0 0 0 0 0 0 0 0 0 0 0 0 0 0 0 0 0 0 0 0 0 0 0 0 0 0 0 0 0 0 0
0 0 0 -0 -0 -0 0 -0 -0 -0 0 0 0 0 0 0 0 0 0 0 0 0 0 0 0 0 0 0 0 0 0 0 0 0 0 0 0 0 0 0 0 1 1
-0 -0 0 -0 0 -0 0 0 0 0 0 0 0 0 0 0 0 0 0 0 0 0 0 0 0 0 0 0 0 0 0 0 0 0 0 0 0 0 0 0 0 0 0
0 0 -0 -0 -0 0 0 0 0 0 0 0 0 0 0 0 0 0 0 0 0 0 0 0 0 0 0 0 0 0 0 0 0 0 0 0 0 0 0 0 0 0 0
0 0 0 0 0 0 0 0 0 0 0 0 0 0 0 0 0 0 0 0 0 0 0 0 0 0 0 0 0 0 0 0 0 0 0 0 0 0 0 0 0 0 0
0 0 0 -0 -0 -0 -0 0 0 0 -0 -0 -0 -0 0 0 0 0 0 0 0 0 0 0 0 0 0 0 0 0 0 0 0 0 0 0 0 0 0 0 0 0 0
0 0 0 -0 -0 -0 -0 -0 0 0 -0 0 0 0 0 0 0 0 0 0 0 0 0 0 0 0 0 0 0 0 0 0 0 0 0 0 0 0 0 0 0 0 0
Wind_Speed_500mb
43 45 53 59 60 58 55 54 50 47 45 51 48 49 50 45 41 38 33 27 22 21 19 16 17 15 13 16 16 11 10 10 5 7 7 6 8 7 7 5 6 8 11
44 45 51 56 54 53 52 48 45 44 44 46 48 48 48 44 38 33 26 23 21 18 16 15 17 15 14 15 16 15 10 10 8 7 6 8 8 6 5 6 9 13 17
36 41 47 46 47 45 44 46 41 41 43 47 45 46 41 36 30 26 19 17 18 16 13 12 13 12 14 15 16 16 12 8 6 5 8 10 8 8 6 8 13 15 18
38 43 45 41 40 41 43 42 44 46 52 45 40 37 33 30 28 25 18 16 13 12 9 8 9 11 14 15 15 14 12 7 3 4 2 5 8 7 4 5 12 14 20
41 44 43 42 42 43 42 43 46 51 48 37 35 35 34 32 28 22 17 13 10 8 6 7 7 8 12 13 14 11 9 8 3 3 5 2 8 7 6 6 12 15 20
46 44 43 42 42 43 43 43 44 48 40 34 34 32 32 27 21 15 14 10 6 4 4 4 6 9 12 12 10 8 5 4 5 4 5 2 6 7 8 8 13 18 18
44 43 42 40 42 41 41 41 43 44 39 36 29 27 26 22 14 12 10 4 2 2 2 6 9 11 11 12 10 6 6 7 3 2 3 5 5 5 4 7 11 11 13
42 40 39 39 40 41 43 42 39 36 33 29 25 24 21 19 14 9 4 3 3 0 5 11 13 13 11 11 8 7 5 6 10 8 5 6 9 3 2 6 9 15 13
38 39 41 42 42 43 41 37 34 32 30 28 25 21 19 15 11 6 1 4 4 5 9 12 14 15 11 9 9 8 6 3 4 4 5 10 6 7 7 7 10 15 19
39 38 41 43 44 42 38 34 31 29 29 27 22 17 14 12 7 6 5 7 5 9 8 12 11 11 13 9 10 14 12 8 5 8 10 7 9 11 10 9 12 14 18
41 40 41 43 41 39 34 32 31 29 27 25 21 18 12 8 7 3 10 10 8 9 10 8 9 11 11 9 8 13 14 11 9 9 11 8 12 13 13 13 14 16 19
45 43 42 43 42 39 34 31 29 26 24 22 21 17 10 9 6 7 7 9 13 6 9 9 9 12 11 9 12 16 18 17 14 12 10 15 11 15 16 14 19 17 20
46 43 42 40 39 38 36 33 29 26 25 22 19 16 11 8 3 6 6 8 8 7 8 9 9 9 12 12 18 19 22 17 17 14 16 19 19 17 17 21 15 18 22
48 41 38 37 38 37 33 30 26 26 25 22 20 18 14 9 7 5 5 7 10 13 14 15 17 16 17 21 23 21 20 18 20 22 20 18 18 15 14 22 22 18 21
49 45 39 36 35 34 34 30 29 27 26 21 23 23 19 14 13 10 10 13 15 17 19 21 19 22 25 26 26 28 25 25 24 26 23 17 19 20 17 18 22 21 21
44 43 40 37 33 34 35 29 27 26 24 26 24 21 22 20 19 17 17 19 18 18 21 22 23 26 26 27 22 23 24 24 24 24 25 23 24 22 23 22 20 25 22
40 41 40 39 32 34 34 28 27 23 28 30 32 26 26 23 20 22 18 17 18 21 24 25 28 29 29 26 23 22 24 26 26 26 25 25 24 25 26 25 25 24 27
43 46 41 36 38 35 33 31 31 28 28 28 26 29 27 27 25 23 22 19 23 24 26 27 26 26 25 28 29 28 27 22 23 21 23 29 32 33 31 27 27 27 25
46 43 45 41 39 36 33 33 34 32 29 28 30 31 30 27 27 27 26 28 29 27 29 25 23 24 24 26 27 26 24 19 14 17 17 21 26 33 29 28 28 28 30
46 48 42 45 42 34 33 33 34 34 32 35 38 36 33 31 30 29 27 21 26 24 21 22 24 24 24 22 23 21 16 9 5 5 6 6 11 17 28 31 29 31 34
48 52 48 47 39 39 40 41 40 38 37 37 39 38 34 34 33 32 31 27 19 21 27 27 25 25 20 25 23 21 7 9 6 8 6 7 9 13 13 17 30 34 35
52 49 47 45 42 43 44 41 37 34 35 32 31 33 33 31 28 25 22 20 27 31 29 22 20 20 21 18 22 21 10 4 6 8 3 8 11 13 14 13 14 19 26
61 53 47 46 45 46 42 41 41 38 35 33 33 31 25 19 19 18 20 26 23 12 5 14 20 19 18 17 14 12 8 4 21 2 5 11 15 14 14 17 21 22 23
64 56 50 46 47 48 44 44 43 36 29 24 23 21 22 22 23 21 23 13 11 6 9 17 15 16 18 16 13 8 8 14 7 9 12 14 19 18 16 16 16 21 28
67 61 54 51 50 51 50 47 42 38 32 27 26 25 28 28 23 19 13 10 12 11 16 18 14 13 12 12 7 9 8 7 9 16 19 25 17 20 19 19 21 21 17
68 62 58 57 56 55 53 50 45 40 35 30 25 25 23 26 23 18 17 17 15 12 18 10 7 8 8 8 7 3 4 8 11 12 23 29 27 27 25 27 25 25 26
Wind_Direction_500mb
131 123 133 131 134 139 139 139 135 131 134 142 143 143 138 136 134 128 118 113 112 105 96 87 75 62 57 45 42 47 58 60 79 61 77 72 70 80 59 66 80 121 117
137 139 137 136 136 139 143 145 140 137 138 140 142 144 141 139 134 129 120 107 100 99 92 82 74 72 60 48 42 34 47 74 100 64 71 60 56 56 65 42 81 107 126
138 148 145 143 145 145 147 146 141 142 140 139 143 145 145 143 141 144 133 115 109 113 108 96 84 65 46 40 37 37 44 80 100 90 57 45 54 61 66 59 100 111 125
142 146 150 145 147 149 148 143 144 145 140 136 137 142 147 146 145 148 145 128 122 121 107 86 65 47 27 25 27 30 48 55 134 137 90 33 41 33 14 73 121 124 129
144 144 147 149 150 147 145 146 148 148 145 134 137 141 144 144 143 145 139 130 123 99 67 54 34 16 10 10 24 28 48 49 22 289 181 13 34 33 49 102 126 138 137
144 146 150 151 149 149 149 146 147 152 150 144 137 143 148 148 144 141 138 131 106 61 47 32 6 352 345 354 14 21 39 28 40 46 199 40 358 48 80 98 130 135 144
148 151 151 153 153 150 148 147 146 152 157 152 150 151 155 156 160 152 141 135 2 28 26 345 341 332 332 338 356 18 357 345 319 246 188 233 308 26 103 93 142 141 150
152 153 155 155 153 153 152 153 154 159 162 162 156 153 158 166 166 163 166 311 326 240 322 326 331 334 331 336 348 350 347 349 310 306 259 229 261 302 205 218 170 173 161
158 161 161 160 160 158 157 157 158 160 159 156 158 160 169 171 181 194 237 315 305 295 319 331 348 346 343 345 348 7 6 348 351 311 291 251 251 261 241 226 197 175 172
168 167 166 167 167 163 165 168 165 167 167 165 171 178 180 182 198 237 300 330 327 321 345 357 357 352 3 1 359 354 4 352 348 317 301 285 266 263 255 221 206 196 182
173 172 173 173 174 177 176 176 179 181 182 189 193 196 199 209 222 275 282 306 310 335 339 359 357 355 346 351 346 346 337 330 319 315 292 294 277 262 254 241 220 211 195
180 180 182 182 180 180 180 181 182 184 183 193 198 195 194 232 244 265 303 313 319 286 317 338 332 340 345 340 320 314 326 304 309 291 278 279 273 270 246 249 229 215 206
186 185 187 189 190 193 191 187 192 190 195 198 202 201 209 233 268 316 317 331 338 311 312 325 338 336 340 336 327 314 306 286 288 292 275 285 270 273 257 241 244 224 208
191 188 187 190 192 195 196 202 203 206 204 207 211 220 234 239 244 284 286 331 328 321 301 302 309 317 318 319 319 322 326 297 281 287 291 271 268 271 274 248 245 250 230
199 197 197 198 197 196 197 200 206 209 210 213 222 229 241 257 262 265 284 300 311 312 300 299 299 304 306 307 311 308 307 306 294 285 282 275 270 259 268 268 249 250 252
200 201 198 200 201 200 200 201 204 210 209 214 222 236 245 252 260 265 283 297 298 299 300 298 301 306 306 310 313 310 307 303 295 295 276 278 263 262 267 263 257 244 258
200 199 201 205 203 210 209 205 211 217 226 232 240 252 255 266 265 271 283 294 289 293 304 301 300 305 312 314 317 313 305 296 285 277 271 270 253 255 266 259 252 249 248
204 202 202 203 212 206 212 214 227 230 235 243 247 251 258 268 274 276 282 285 278 284 299 296 293 295 299 307 310 313 315 305 282 273 268 260 256 257 260 257 251 252 251
211 204 207 211 208 209 220 229 229 236 242 250 251 255 264 272 273 277 282 277 275 285 296 293 288 291 299 303 304 308 314 309 292 286 279 269 266 261 258 255 255 251 255
218 216 220 218 218 221 232 237 240 241 244 251 252 256 261 263 262 273 286 277 280 290 290 291 295 303 314 317 318 320 322 318 343 330 348 304 294 289 267 265 257 256 257
215 217 222 219 219 222 229 231 235 244 248 256 252 253 251 252 260 266 275 278 280 284 286 289 296 306 313 316 324 333 346 296 142 15 333 335 321 326 319 272 260 261 263
218 217 219 220 220 225 231 237 240 246 249 252 244 242 245 254 255 255 262 272 285 288 288 291 298 302 311 315 327 342 351 147 206 322 37 339 325 311 307 302 279 269 263
222 219 218 219 220 226 230 230 235 238 242 241 243 242 243 248 237 252 271 284 281 275 298 311 304 300 299 305 320 323 338 326 330 186 35 10 355 338 314 290 279 274 268
224 222 222 221 224 226 225 226 233 239 246 238 234 234 232 231 236 253 273 266 226 227 303 305 290 284 290 300 305 303 305 306 324 329 348 358 4 359 351 343 316 291 282
223 222 222 222 225 225 224 226 233 236 236 232 236 240 230 231 235 257 253 242 229 263 293 295 283 281 286 293 299 306 287 290 303 321 326 336 353 14 15 8 357 355 341
222 219 221 223 222 221 223 225 231 233 232 230 237 232 227 227 237 244 242 246 251 276 288 268 269 290 287 272 280 319 344 319 312 314 313 322 329 335 338 338 335 326 330
Wind_Speed_850mb
43 45 53 59 60 58 55 54 50 47 45 51 48 49 50 45 41 38 33 27 22 21 19 16 17 15 13 16 16 11 10 10 5 7 7 6 8 7 7 5 6 8 11
44 45 51 56 54 53 52 48 45 44 44 46 48 48 48 44 38 33 26 23 21 18 16 15 17 15 14 15 16 15 10 10 8 7 6 8 8 6 5 6 9 13 17
36 41 47 46 47 45 44 46 41 41 43 47 45 46 41 36 30 26 19 17 18 16 13 12 13 12 14 15 16 16 12 8 6 5 8 10 8 8 6 8 13 15 18
38 43 45 41 40 41 43 42 44 46 52 45 40 37 33 30 28 25 18 16 13 12 9 8 9 11 14 15 15 14 12 7 3 4 2 5 8 7 4 5 12 14 20
41 44 43 42 42 43 42 43 46 51 48 37 35 35 34 32 28 22 17 13 10 8 6 7 7 8 12 13 14 11 9 8 3 3 5 2 8 7 6 6 12 15 20
46 44 43 42 42 43 43 43 44 48 40 34 34 32 32 27 21 15 14 10 6 4 4 4 6 9 12 12 10 8 5 4 5 4 5 2 6 7 8 8 13 18 18
44 43 42 40 42 41 41 41 43 44 39 36 29 27 26 22 14 12 10 4 2 2 2 6 9 11 11 12 10 6 6 7 3 2 3 5 5 5 4 7 11 11 13
42 40 39 39 40 41 43 42 39 36 33 29 25 24 21 19 14 9 4 3 3 0 5 11 13 13 11 11 8 7 5 6 10 8 5 6 9 3 2 6 9 15 13
38 39 41 42 42 43 41 37 34 32 30 28 25 21 19 15 11 6 1 4 4 5 9 12 14 15 11 9 9 8 6 3 4 4 5 10 6 7 7 7 10 15 19
39 38 41 43 44 42 38 34 31 29 29 27 22 17 14 12 7 6 5 7 5 9 8 12 11 11 13 9 10 14 12 8 5 8 10 7 9 11 10 9 12 14 18
41 40 41 43 41 39 34 32 31 29 27 25 21 18 12 8 7 3 10 10 8 9 10 8 9 11 11 9 8 13 14 11 9 9 11 8 12 13 13 13 14 16 19
45 43 42 43 42 39 34 31 29 26 24 22 21 17 10 9 6 7 7 9 13 6 9 9 9 12 11 9 12 16 18 17 14 12 10 15 11 15 16 14 19 17 20
46 43 42 40 39 38 36 33 29 26 25 22 19 16 11 8 3 6 6 8 8 7 8 9 9 9 12 12 18 19 22 17 17 14 16 19 19 17 17 21 15 18 22
48 41 38 37 38 37 33 30 26 26 25 22 20 18 14 9 7 5 5 7 10 13 14 15 17 16 17 21 23 21 20 18 20 22 20 18 18 15 14 22 22 18 21
49 45 39 36 35 34 34 30 29 27 26 21 23 23 19 14 13 10 10 13 15 17 19 21 19 22 25 26 26 28 25 25 24 26 23 17 19 20 17 18 22 21 21
44 43 40 37 33 34 35 29 27 26 24 26 24 21 22 20 19 17 17 19 18 18 21 22 23 26 26 27 22 23 24 24 24 24 25 23 24 22 23 22 20 25 22
40 41 40 39 32 34 34 28 27 23 28 30 32 26 26 23 20 22 18 17 18 21 24 25 28 29 29 26 23 22 24 26 26 26 25 25 24 25 26 25 25 24 27
43 46 41 36 38 35 33 31 31 28 28 28 26 29 27 27 25 23 22 19 23 24 26 27 26 26 25 28 29 28 27 22 23 21 23 29 32 33 31 27 27 27 25
46 43 45 41 39 36 33 33 34 32 29 28 30 31 30 27 27 27 26 28 29 27 29 25 23 24 24 26 27 26 24 19 14 17 17 21 26 33 29 28 28 28 30
46 48 42 45 42 34 33 33 34 34 32 35 38 36 33 31 30 29 27 21 26 24 21 22 24 24 24 22 23 21 16 9 5 5 6 6 11 17 28 31 29 31 34
48 52 48 47 39 39 40 41 40 38 37 37 39 38 34 34 33 32 31 27 19 21 27 27 25 25 20 25 23 21 7 9 6 8 6 7 9 13 13 17 30 34 35
52 49 47 45 42 43 44 41 37 34 35 32 31 33 33 31 28 25 22 20 27 31 29 22 20 20 21 18 22 21 10 4 6 8 3 8 11 13 14 13 14 19 26
61 53 47 46 45 46 42 41 41 38 35 33 33 31 25 19 19 18 20 26 23 12 5 14 20 19 18 17 14 12 8 4 21 2 5 11 15 14 14 17 21 22 23
64 56 50 46 47 48 44 44 43 36 29 24 23 21 22 22 23 21 23 13 11 6 9 17 15 16 18 16 13 8 8 14 7 9 12 14 19 18 16 16 16 21 28
67 61 54 51 50 51 50 47 42 38 32 27 26 25 28 28 23 19 13 10 12 11 16 18 14 13 12 12 7 9 8 7 9 16 19 25 17 20 19 19 21 21 17
68 62 58 57 56 55 53 50 45 40 35 30 25 25 23 26 23 18 17 17 15 12 18 10 7 8 8 8 7 3 4 8 11 12 23 29 27 27 25 27 25 25 26
Wind_Direction_850mb
131 123 133 131 134 139 139 139 135 131 134 142 143 143 138 136 134 128 118 113 112 105 96 87 75 62 57 45 42 47 58 60 79 61 77 72 70 80 59 66 80 121 117
137 139 137 136 136 139 143 145 140 137 138 140 142 144 141 139 134 129 120 107 100 99 92 82 74 72 60 48 42 34 47 74 100 64 71 60 56 56 65 42 81 107 126
138 148 145 143 145 145 147 146 141 142 140 139 143 145 145 143 141 144 133 115 109 113 108 96 84 65 46 40 37 37 44 80 100 90 57 45 54 61 66 59 100 111 125
142 146 150 145 147 149 148 143 144 145 140 136 137 142 147 146 145 148 145 128 122 121 107 86 65 47 27 25 27 30 48 55 134 137 90 33 41 33 14 73 121 124 129
144 144 147 149 150 147 145 146 148 148 145 134 137 141 144 144 143 145 139 130 123 99 67 54 34 16 10 10 24 28 48 49 22 289 181 13 34 33 49 102 126 138 137
144 146 150 151 149 149 149 146 147 152 150 144 137 143 148 148 144 141 138 131 106 61 47 32 6 352 345 354 14 21 39 28 40 46 199 40 358 48 80 98 130 135 144
148 151 151 153 153 150 148 147 146 152 157 152 150 151 155 156 160 152 141 135 2 28 26 345 341 332 332 338 356 18 357 345 319 246 188 233 308 26 103 93 142 141 150
152 153 155 155 153 153 152 153 154 159 162 162 156 153 158 166 166 163 166 311 326 240 322 326 331 334 331 336 348 350 347 349 310 306 259 229 261 302 205 218 170 173 161
158 161 161 160 160 158 157 157 158 160 159 156 158 160 169 171 181 194 237 315 305 295 319 331 348 346 343 345 348 7 6 348 351 311 291 251 251 261 241 226 197 175 172
168 167 166 167 167 163 165 168 165 167 167 165 171 178 180 182 198 237 300 330 327 321 345 357 357 352 3 1 359 354 4 352 348 317 301 285 266 263 255 221 206 196 182
173 172 173 173 174 177 176 176 179 181 182 189 193 196 199 209 222 275 282 306 310 335 339 359 357 355 346 351 346 346 337 330 319 315 292 294 277 262 254 241 220 211 195
180 180 182 182 180 180 180 181 182 184 183 193 198 195 194 232 244 265 303 313 319 286 317 338 332 340 345 340 320 314 326 304 309 291 278 279 273 270 246 249 229 215 206
186 185 187 189 190 193 191 187 192 190 195 198 202 201 209 233 268 316 317 331 338 311 312 325 338 336 340 336 327 314 306 286 288 292 275 285 270 273 257 241 244 224 208
191 188 187 190 192 195 196 202 203 206 204 207 211 220 234 239 244 284 286 331 328 321 301 302 309 317 318 319 319 322 326 297 281 287 291 271 268 271 274 248 245 250 230
199 197 197 198 197 196 197 200 206 209 210 213 222 229 241 257 262 265 284 300 311 312 300 299 299 304 306 307 311 308 307 306 294 285 282 275 270 259 268 268 249 250 252
200 201 198 200 201 200 200 201 204 210 209 214 222 236 245 252 260 265 283 297 298 299 300 298 301 306 306 310 313 310 307 303 295 295 276 278 263 262 267 263 257 244 258
200 199 201 205 203 210 209 205 211 217 226 232 240 252 255 266 265 271 283 294 289 293 304 301 300 305 312 314 317 313 305 296 285 277 271 270 253 255 266 259 252 249 248
204 202 202 203 212 206 212 214 227 230 235 243 247 251 258 268 274 276 282 285 278 284 299 296 293 295 299 307 310 313 315 305 282 273 268 260 256 257 260 257 251 252 251
211 204 207 211 208 209 220 229 229 236 242 250 251 255 264 272 273 277 282 277 275 285 296 293 288 291 299 303 304 308 314 309 292 286 279 269 266 261 258 255 255 251 255
218 216 220 218 218 221 232 237 240 241 244 251 252 256 261 263 262 273 286 277 280 290 290 291 295 303 314 317 318 320 322 318 343 330 348 304 294 289 267 265 257 256 257
215 217 222 219 219 222 229 231 235 244 248 256 252 253 251 252 260 266 275 278 280 284 286 289 296 306 313 316 324 333 346 296 142 15 333 335 321 326 319 272 260 261 263
218 217 219 220 220 225 231 237 240 246 249 252 244 242 245 254 255 255 262 272 285 288 288 291 298 302 311 315 327 342 351 147 206 322 37 339 325 311 307 302 279 269 263
222 219 218 219 220 226 230 230 235 238 242 241 243 242 243 248 237 252 271 284 281 275 298 311 304 300 299 305 320 323 338 326 330 186 35 10 355 338 314 290 279 274 268
224 222 222 221 224 226 225 226 233 239 246 238 234 234 232 231 236 253 273 266 226 227 303 305 290 284 290 300 305 303 305 306 324 329 348 358 4 359 351 343 316 291 282
223 222 222 222 225 225 224 226 233 236 236 232 236 240 230 231 235 257 253 242 229 263 293 295 283 281 286 293 299 306 287 290 303 321 326 336 353 14 15 8 357 355 341
222 219 221 223 222 221 223 225 231 233 232 230 237 232 227 227 237 244 242 246 251 276 288 268 269 290 287 272 280 319 344 319 312 314 313 322 329 335 338 338 335 326 330